| time (UTC) | temp C | wind direction | speed KPH | gust KPH | rain 1hr cm | rain 24hr cm | rain mn cm | humidity % | barometer mb |
| 20260507075725 | 15 | 106 | 0.0 | 0.0 | 0.00 | 0.00 | 0.00 | 81 | 1018.8 |
| 20260507075225 | 15 | 106 | 0.0 | 0.0 | 0.00 | 0.00 | 0.00 | 81 | 1018.9 |
| 20260507074724 | 15 | 106 | 0.0 | 0.0 | 0.00 | 0.00 | 0.00 | 81 | 1018.8 |
| 20260507074225 | 15 | 106 | 0.0 | 0.0 | 0.00 | 0.00 | 0.00 | 81 | 1018.9 |
| 20260507073944 | 15 | 106 | 0.0 | 0.0 | 0.00 | 0.00 | 0.00 | 81 | 1018.9 |
| 20260507073225 | 15 | 106 | 0.0 | 0.0 | 0.00 | 0.00 | 0.00 | 82 | 1018.8 |
| 20260507072725 | 15 | 106 | 0.0 | 0.0 | 0.00 | 0.00 | 0.00 | 82 | 1018.9 |
| 20260507072226 | 15 | 106 | 0.0 | 0.0 | 0.00 | 0.00 | 0.00 | 82 | 1018.8 |
| 20260507071724 | 15 | 106 | 0.0 | 0.0 | 0.00 | 0.00 | 0.00 | 82 | 1018.7 |
| 20260507071225 | 15 | 106 | 0.0 | 0.0 | 0.00 | 0.00 | 0.00 | 81 | 1018.7 |
| 20260507071214 | 15 | 106 | 0.0 | 0.0 | 0.00 | 0.00 | 0.00 | 81 | 1018.7 |
| 20260507070224 | 15 | 106 | 0.0 | 0.0 | 0.00 | 0.00 | 0.00 | 80 | 1018.8 |
| 20260507065723 | 15 | 106 | 0.0 | 0.0 | 0.00 | 0.00 | 0.00 | 80 | 1018.7 |
| 20260507065221 | 15 | 106 | 0.0 | 0.0 | 0.00 | 0.00 | 0.00 | 79 | 1018.8 |
| 20260507065215 | 15 | 106 | 0.0 | 3.2 | 0.00 | 0.00 | 0.00 | 79 | 1018.7 |
| 20260507064225 | 15 | 106 | 0.0 | 4.8 | 0.00 | 0.00 | 0.00 | 78 | 1018.9 |
| 20260507063724 | 15 | 106 | 3.2 | 4.8 | 0.00 | 0.00 | 0.00 | 77 | 1018.9 |
| 20260507063224 | 16 | 104 | 1.6 | 4.8 | 0.00 | 0.00 | 0.00 | 76 | 1018.9 |
| 20260507062722 | 16 | 85 | 0.0 | 3.2 | 0.00 | 0.00 | 0.00 | 76 | 1018.8 |
| 20260507062223 | 16 | 85 | 3.2 | 3.2 | 0.00 | 0.00 | 0.00 | 76 | 1018.7 |
| 20260507061722 | 16 | 85 | 0.0 | 4.8 | 0.00 | 0.00 | 0.00 | 75 | 1018.8 |
| 20260507061223 | 16 | 85 | 1.6 | 4.8 | 0.00 | 0.00 | 0.00 | 75 | 1018.7 |
| 20260507060722 | 16 | 85 | 3.2 | 4.8 | 0.00 | 0.00 | 0.00 | 75 | 1018.7 |
| 20260507060225 | 16 | 85 | 0.0 | 3.2 | 0.00 | 0.00 | 0.00 | 75 | 1018.7 |
| 20260507055723 | 16 | 85 | 3.2 | 3.2 | 0.00 | 0.00 | 0.00 | 75 | 1018.7 |
| 20260507055224 | 16 | 85 | 0.0 | 3.2 | 0.00 | 0.00 | 0.00 | 75 | 1018.7 |
| 20260507054723 | 16 | 85 | 3.2 | 3.2 | 0.00 | 0.00 | 0.00 | 75 | 1018.6 |
| 20260507054223 | 16 | 85 | 0.0 | 0.0 | 0.00 | 0.00 | 0.00 | 75 | 1018.7 |
| 20260507053723 | 16 | 85 | 0.0 | 3.2 | 0.00 | 0.00 | 0.00 | 75 | 1018.7 |
| 20260507053223 | 16 | 85 | 0.0 | 3.2 | 0.00 | 0.00 | 0.00 | 75 | 1018.8 |
| 20260507052939 | 16 | 85 | 3.2 | 4.8 | 0.00 | 0.00 | 0.00 | 75 | 1018.8 |
| 20260507052223 | 16 | 85 | 3.2 | 4.8 | 0.00 | 0.00 | 0.00 | 75 | 1018.7 |
| 20260507051722 | 16 | 85 | 3.2 | 6.4 | 0.00 | 0.00 | 0.00 | 75 | 1018.7 |
| 20260507051223 | 16 | 85 | 3.2 | 6.4 | 0.00 | 0.00 | 0.00 | 76 | 1018.7 |
| 20260507050721 | 16 | 85 | 3.2 | 3.2 | 0.00 | 0.00 | 0.00 | 76 | 1018.7 |
| 20260507050222 | 16 | 85 | 0.0 | 3.2 | 0.00 | 0.00 | 0.00 | 75 | 1018.7 |
| 20260507045720 | 16 | 85 | 0.0 | 0.0 | 0.00 | 0.00 | 0.00 | 75 | 1018.7 |
| 20260507045221 | 16 | 85 | 0.0 | 0.0 | 0.00 | 0.00 | 0.00 | 75 | 1018.6 |
| 20260507044720 | 16 | 85 | 0.0 | 0.0 | 0.00 | 0.00 | 0.00 | 75 | 1018.6 |
| 20260507044442 | 16 | 85 | 0.0 | 3.2 | 0.00 | 0.00 | 0.00 | 74 | 1018.6 |
| 20260507043720 | 16 | 85 | 0.0 | 4.8 | 0.00 | 0.00 | 0.00 | 74 | 1018.6 |
| 20260507043221 | 16 | 85 | 1.6 | 4.8 | 0.00 | 0.00 | 0.00 | 74 | 1018.5 |
| 20260507042720 | 16 | 85 | 0.0 | 4.8 | 0.00 | 0.00 | 0.00 | 74 | 1018.5 |
| 20260507042446 | 17 | 85 | 3.2 | 4.8 | 0.00 | 0.00 | 0.00 | 74 | 1018.4 |
| 20260507041719 | 17 | 85 | 1.6 | 4.8 | 0.00 | 0.00 | 0.00 | 73 | 1018.5 |
| 20260507041443 | 17 | 85 | 0.0 | 0.0 | 0.00 | 0.00 | 0.00 | 73 | 1018.4 |
| 20260507040719 | 17 | 85 | 0.0 | 0.0 | 0.00 | 0.00 | 0.00 | 72 | 1018.4 |
| 20260507040220 | 17 | 85 | 0.0 | 0.0 | 0.00 | 0.00 | 0.00 | 71 | 1018.2 |
| 20260507035719 | 17 | 85 | 0.0 | 0.0 | 0.00 | 0.00 | 0.00 | 71 | 1018.3 |
| 20260507035440 | 17 | 85 | 0.0 | 0.0 | 0.00 | 0.00 | 0.00 | 70 | 1018.3 |
| 20260507034946 | 17 | 85 | 0.0 | 0.0 | 0.00 | 0.00 | 0.00 | 70 | 1018.2 |
| 20260507034220 | 17 | 85 | 0.0 | 0.0 | 0.00 | 0.00 | 0.00 | 70 | 1018.3 |
| 20260507033719 | 18 | 85 | 0.0 | 0.0 | 0.00 | 0.00 | 0.00 | 70 | 1018.1 |
| 20260507033220 | 18 | 85 | 0.0 | 0.0 | 0.00 | 0.00 | 0.00 | 70 | 1018.1 |
| 20260507032938 | 18 | 85 | 0.0 | 0.0 | 0.00 | 0.00 | 0.00 | 70 | 1018.1 |
| 20260507032219 | 18 | 85 | 0.0 | 3.2 | 0.00 | 0.00 | 0.00 | 70 | 1017.9 |
| 20260507031718 | 18 | 85 | 1.6 | 3.2 | 0.00 | 0.00 | 0.00 | 69 | 1017.9 |
| 20260507031218 | 18 | 85 | 0.0 | 0.0 | 0.00 | 0.00 | 0.00 | 69 | 1018.1 |
| 20260507030717 | 18 | 85 | 0.0 | 0.0 | 0.00 | 0.00 | 0.00 | 68 | 1017.9 |
| 20260507030219 | 18 | 85 | 0.0 | 0.0 | 0.00 | 0.00 | 0.00 | 67 | 1017.9 |
| 20260507025717 | 18 | 85 | 0.0 | 0.0 | 0.00 | 0.00 | 0.00 | 67 | 1017.9 |
| 20260507025219 | 18 | 85 | 0.0 | 0.0 | 0.00 | 0.00 | 0.00 | 67 | 1017.9 |
| 20260507024718 | 19 | 85 | 0.0 | 0.0 | 0.00 | 0.00 | 0.00 | 66 | 1017.9 |
| 20260507024219 | 19 | 85 | 0.0 | 0.0 | 0.00 | 0.00 | 0.00 | 66 | 1018.1 |
| 20260507023717 | 19 | 85 | 0.0 | 0.0 | 0.00 | 0.00 | 0.00 | 66 | 1017.9 |
| 20260507023218 | 19 | 85 | 0.0 | 0.0 | 0.00 | 0.00 | 0.00 | 66 | 1018.1 |
| 20260507022937 | 19 | 85 | 0.0 | 0.0 | 0.00 | 0.00 | 0.00 | 67 | 1017.9 |
| 20260507022220 | 19 | 85 | 0.0 | 1.6 | 0.00 | 0.00 | 0.00 | 67 | 1017.9 |
| 20260507021718 | 19 | 85 | 0.0 | 4.8 | 0.00 | 0.00 | 0.00 | 67 | 1018.1 |
| 20260507021218 | 20 | 85 | 3.2 | 4.8 | 0.00 | 0.00 | 0.00 | 67 | 1018.1 |
| 20260507020718 | 20 | 83 | 0.0 | 4.8 | 0.00 | 0.00 | 0.00 | 67 | 1018.1 |
| 20260507020218 | 20 | 83 | 1.6 | 3.2 | 0.00 | 0.00 | 0.00 | 66 | 1017.9 |
| 20260507015717 | 19 | 83 | 0.0 | 0.0 | 0.00 | 0.00 | 0.00 | 65 | 1018.1 |
| 20260507015657 | 19 | 83 | 0.0 | 4.8 | 0.00 | 0.00 | 0.00 | 65 | 1018.1 |
| 20260507014717 | 19 | 83 | 0.0 | 4.8 | 0.00 | 0.00 | 0.00 | 65 | 1018.1 |
| 20260507014218 | 19 | 83 | 3.2 | 4.8 | 0.00 | 0.00 | 0.00 | 65 | 1018.1 |
| 20260507013717 | 19 | 83 | 3.2 | 4.8 | 0.00 | 0.00 | 0.00 | 65 | 1018.1 |
| 20260507013218 | 19 | 83 | 3.2 | 4.8 | 0.00 | 0.00 | 0.00 | 64 | 1018.1 |
| 20260507012717 | 19 | 83 | 1.6 | 4.8 | 0.00 | 0.00 | 0.00 | 64 | 1018.1 |
| 20260507012218 | 19 | 86 | 1.6 | 8.0 | 0.00 | 0.00 | 0.00 | 64 | 1018.2 |
| 20260507011941 | 19 | 86 | 4.8 | 8.0 | 0.00 | 0.00 | 0.00 | 64 | 1018.1 |
| 20260507011217 | 20 | 85 | 6.4 | 8.0 | 0.00 | 0.00 | 0.00 | 63 | 1018.1 |
| 20260507010716 | 20 | 80 | 4.8 | 8.0 | 0.00 | 0.00 | 0.00 | 63 | 1018.2 |
| 20260507010218 | 20 | 85 | 4.8 | 4.8 | 0.00 | 0.00 | 0.00 | 61 | 1018.3 |
| 20260507005715 | 20 | 85 | 3.2 | 4.8 | 0.00 | 0.00 | 0.00 | 60 | 1018.3 |
| 20260507005216 | 20 | 85 | 3.2 | 6.4 | 0.00 | 0.00 | 0.00 | 59 | 1018.2 |
| 20260507004715 | 20 | 85 | 4.8 | 6.4 | 0.00 | 0.00 | 0.00 | 59 | 1018.3 |
| 20260507004215 | 21 | 83 | 4.8 | 9.7 | 0.00 | 0.00 | 0.00 | 58 | 1018.3 |
| 20260507003940 | 21 | 85 | 8.0 | 9.7 | 0.00 | 0.00 | 0.00 | 57 | 1018.4 |
| 20260507003215 | 21 | 87 | 4.8 | 8.0 | 0.00 | 0.00 | 0.00 | 56 | 1018.4 |
| 20260507002716 | 22 | 85 | 4.8 | 8.0 | 0.00 | 0.00 | 0.00 | 56 | 1018.3 |
| 20260507002215 | 22 | 125 | 0.0 | 6.4 | 0.00 | 0.00 | 0.00 | 56 | 1018.5 |
| 20260507001938 | 22 | 125 | 1.6 | 6.4 | 0.00 | 0.00 | 0.00 | 55 | 1018.4 |
| 20260507001213 | 22 | 121 | 1.6 | 9.7 | 0.00 | 0.00 | 0.00 | 55 | 1018.5 |
| 20260507000714 | 22 | 118 | 3.2 | 9.7 | 0.00 | 0.00 | 0.00 | 56 | 1018.5 |
| 20260507000213 | 22 | 125 | 1.6 | 8.0 | 0.00 | 0.00 | 0.00 | 57 | 1018.6 |
| 20260506235713 | 22 | 120 | 3.2 | 8.0 | 0.00 | 0.00 | 0.00 | 56 | 1018.6 |
| 20260506235432 | 22 | 134 | 3.2 | 8.0 | 0.00 | 0.00 | 0.00 | 57 | 1018.7 |
| 20260506234714 | 22 | 114 | 6.4 | 8.0 | 0.00 | 0.00 | 0.00 | 57 | 1018.7 |
| 20260506234433 | 22 | 123 | 3.2 | 8.0 | 0.00 | 0.00 | 0.00 | 56 | 1018.7 |
| 20260506233713 | 22 | 134 | 3.2 | 8.0 | 0.00 | 0.00 | 0.00 | 54 | 1018.8 |
| 20260506233213 | 22 | 135 | 1.6 | 11.3 | 0.00 | 0.00 | 0.00 | 53 | 1018.9 |
| 20260506232712 | 22 | 134 | 4.8 | 11.3 | 0.00 | 0.00 | 0.00 | 53 | 1018.9 |
| 20260506232213 | 22 | 111 | 3.2 | 8.0 | 0.00 | 0.00 | 0.00 | 53 | 1018.9 |
| 20260506231715 | 23 | 134 | 3.2 | 8.0 | 0.00 | 0.00 | 0.00 | 53 | 1019.0 |
| 20260506231213 | 23 | 142 | 4.8 | 8.0 | 0.00 | 0.00 | 0.00 | 52 | 1019.0 |
| 20260506230713 | 23 | 102 | 4.8 | 8.0 | 0.00 | 0.00 | 0.00 | 54 | 1019.2 |
| 20260506230212 | 23 | 113 | 3.2 | 8.0 | 0.00 | 0.00 | 0.00 | 55 | 1019.2 |
| 20260506225713 | 23 | 100 | 4.8 | 8.0 | 0.00 | 0.00 | 0.00 | 52 | 1019.2 |
| 20260506225211 | 23 | 131 | 4.8 | 9.7 | 0.00 | 0.00 | 0.00 | 54 | 1019.3 |
| 20260506224713 | 23 | 102 | 3.2 | 11.3 | 0.00 | 0.00 | 0.00 | 54 | 1019.4 |
| 20260506224438 | 23 | 120 | 3.2 | 11.3 | 0.00 | 0.00 | 0.00 | 54 | 1019.5 |
| 20260506223712 | 23 | 130 | 3.2 | 11.3 | 0.00 | 0.00 | 0.00 | 54 | 1019.4 |
| 20260506223211 | 23 | 97 | 4.8 | 11.3 | 0.00 | 0.00 | 0.00 | 54 | 1019.5 |
| 20260506222712 | 23 | 94 | 6.4 | 14.5 | 0.00 | 0.00 | 0.00 | 54 | 1019.6 |
| 20260506222212 | 23 | 90 | 6.4 | 14.5 | 0.00 | 0.00 | 0.00 | 54 | 1019.7 |
| 20260506221713 | 23 | 94 | 6.4 | 14.5 | 0.00 | 0.00 | 0.00 | 53 | 1019.8 |
| 20260506221212 | 22 | 103 | 4.8 | 11.3 | 0.00 | 0.00 | 0.00 | 55 | 1019.9 |
| 20260506220712 | 22 | 99 | 4.8 | 11.3 | 0.00 | 0.00 | 0.00 | 56 | 1019.9 |
| 20260506220210 | 22 | 86 | 6.4 | 16.1 | 0.00 | 0.00 | 0.00 | 56 | 1020.0 |
| 20260506215713 | 22 | 94 | 8.0 | 19.3 | 0.00 | 0.00 | 0.00 | 55 | 1020.1 |
| 20260506215211 | 22 | 90 | 9.7 | 19.3 | 0.00 | 0.00 | 0.00 | 54 | 1020.0 |
| 20260506214713 | 22 | 104 | 8.0 | 14.5 | 0.00 | 0.00 | 0.00 | 54 | 1020.2 |
| 20260506214433 | 22 | 94 | 8.0 | 14.5 | 0.00 | 0.00 | 0.00 | 54 | 1020.2 |
| 20260506213945 | 22 | 107 | 8.0 | 11.3 | 0.00 | 0.00 | 0.00 | 54 | 1020.3 |
| 20260506213211 | 22 | 97 | 4.8 | 9.7 | 0.00 | 0.00 | 0.00 | 55 | 1020.3 |
| 20260506212936 | 22 | 87 | 6.4 | 8.0 | 0.00 | 0.00 | 0.00 | 55 | 1020.3 |
| 20260506212211 | 22 | 97 | 4.8 | 14.5 | 0.00 | 0.00 | 0.00 | 55 | 1020.4 |
| 20260506211710 | 22 | 94 | 8.0 | 14.5 | 0.00 | 0.00 | 0.00 | 55 | 1020.5 |
| 20260506211209 | 22 | 121 | 3.2 | 8.0 | 0.00 | 0.00 | 0.00 | 55 | 1020.5 |
| 20260506210710 | 22 | 103 | 4.8 | 11.3 | 0.00 | 0.00 | 0.00 | 55 | 1020.6 |
| 20260506210210 | 22 | 93 | 8.0 | 11.3 | 0.00 | 0.00 | 0.00 | 56 | 1020.6 |
| 20260506205709 | 22 | 83 | 4.8 | 11.3 | 0.00 | 0.00 | 0.00 | 54 | 1020.6 |
| 20260506205209 | 22 | 83 | 6.4 | 16.1 | 0.00 | 0.00 | 0.00 | 56 | 1020.6 |
| 20260506204932 | 21 | 83 | 8.0 | 16.1 | 0.00 | 0.00 | 0.00 | 55 | 1020.5 |
| 20260506204208 | 22 | 103 | 6.4 | 11.3 | 0.00 | 0.00 | 0.00 | 55 | 1020.6 |
| 20260506203709 | 22 | 97 | 6.4 | 9.7 | 0.00 | 0.00 | 0.00 | 57 | 1020.6 |
| 20260506203209 | 22 | 99 | 6.4 | 9.7 | 0.00 | 0.00 | 0.00 | 57 | 1020.6 |
| 20260506202709 | 22 | 107 | 4.8 | 9.7 | 0.00 | 0.00 | 0.00 | 56 | 1020.6 |
| 20260506202208 | 21 | 107 | 1.6 | 9.7 | 0.00 | 0.00 | 0.00 | 59 | 1020.7 |
| 20260506201708 | 21 | 97 | 4.8 | 14.5 | 0.00 | 0.00 | 0.00 | 59 | 1020.8 |
| 20260506201209 | 21 | 103 | 4.8 | 14.5 | 0.00 | 0.00 | 0.00 | 58 | 1020.8 |
| 20260506200704 | 21 | 96 | 4.8 | 11.3 | 0.00 | 0.00 | 0.00 | 58 | 1020.8 |
| 20260506200204 | 21 | 127 | 4.8 | 14.5 | 0.00 | 0.00 | 0.00 | 61 | 1020.9 |
| 20260506195928 | 21 | 83 | 8.0 | 14.5 | 0.00 | 0.00 | 0.00 | 60 | 1020.9 |
| 20260506195202 | 21 | 103 | 6.4 | 11.3 | 0.00 | 0.00 | 0.00 | 60 | 1020.9 |
| 20260506194703 | 21 | 100 | 6.4 | 11.3 | 0.00 | 0.00 | 0.00 | 60 | 1020.9 |
| 20260506194425 | 21 | 117 | 4.8 | 11.3 | 0.00 | 0.00 | 0.00 | 60 | 1020.8 |
| 20260506193704 | 21 | 102 | 6.4 | 14.5 | 0.00 | 0.00 | 0.00 | 59 | 1020.9 |
| 20260506193203 | 21 | 96 | 4.8 | 14.5 | 0.00 | 0.00 | 0.00 | 61 | 1020.9 |
| 20260506192702 | 21 | 90 | 4.8 | 9.7 | 0.00 | 0.00 | 0.00 | 62 | 1020.9 |
| 20260506192202 | 21 | 99 | 3.2 | 11.3 | 0.00 | 0.00 | 0.00 | 60 | 1021.0 |
| 20260506191702 | 21 | 106 | 4.8 | 11.3 | 0.00 | 0.00 | 0.00 | 61 | 1020.8 |
| 20260506191202 | 21 | 106 | 4.8 | 9.7 | 0.00 | 0.00 | 0.00 | 60 | 1020.9 |
| 20260506190701 | 21 | 55 | 6.4 | 11.3 | 0.00 | 0.00 | 0.00 | 60 | 1021.0 |
| 20260506190202 | 21 | 106 | 6.4 | 14.5 | 0.00 | 0.00 | 0.00 | 59 | 1021.0 |
| 20260506185702 | 21 | 109 | 6.4 | 14.5 | 0.00 | 0.00 | 0.00 | 60 | 1021.0 |
| 20260506185202 | 21 | 104 | 4.8 | 14.5 | 0.00 | 0.00 | 0.00 | 60 | 1021.1 |
| 20260506184702 | 21 | 97 | 8.0 | 14.5 | 0.00 | 0.00 | 0.00 | 59 | 1021.1 |
| 20260506184202 | 21 | 93 | 6.4 | 14.5 | 0.00 | 0.00 | 0.00 | 60 | 1021.2 |
| 20260506183702 | 21 | 128 | 4.8 | 14.5 | 0.00 | 0.00 | 0.00 | 60 | 1021.2 |
| 20260506183202 | 21 | 97 | 3.2 | 14.5 | 0.00 | 0.00 | 0.00 | 61 | 1021.2 |
| 20260506182701 | 21 | 133 | 1.6 | 11.3 | 0.00 | 0.00 | 0.00 | 63 | 1021.3 |
| 20260506182431 | 21 | 83 | 6.4 | 16.1 | 0.00 | 0.00 | 0.00 | 63 | 1021.3 |
| 20260506181923 | 21 | 82 | 11.3 | 16.1 | 0.00 | 0.00 | 0.00 | 61 | 1021.3 |
| 20260506181431 | 21 | 83 | 6.4 | 14.5 | 0.00 | 0.00 | 0.00 | 64 | 1021.4 |
| 20260506180702 | 20 | 100 | 6.4 | 11.3 | 0.00 | 0.00 | 0.00 | 60 | 1021.3 |
| 20260506180202 | 21 | 109 | 4.8 | 9.7 | 0.00 | 0.00 | 0.00 | 61 | 1021.3 |
| 20260506175702 | -17 | 0.0 | 6.4 | 0.00 | 0.00 | 0.00 | 1021.3 | ||
| 20260506175204 | 20 | 109 | 3.2 | 8.0 | 0.00 | 0.00 | 0.00 | 62 | 1021.3 |
| 20260506174702 | 20 | 121 | 3.2 | 14.5 | 0.00 | 0.00 | 0.00 | 62 | 1021.3 |
| 20260506174202 | 20 | 99 | 6.4 | 14.5 | 0.00 | 0.00 | 0.00 | 62 | 1021.2 |
| 20260506173921 | 20 | 114 | 4.8 | 14.5 | 0.00 | 0.00 | 0.00 | 62 | 1021.2 |
| 20260506173202 | 20 | 90 | 8.0 | 14.5 | 0.00 | 0.00 | 0.00 | 63 | 1021.2 |
| 20260506172701 | 20 | 100 | 8.0 | 16.1 | 0.00 | 0.00 | 0.00 | 63 | 1021.2 |
| 20260506172202 | 20 | 128 | 4.8 | 16.1 | 0.00 | 0.00 | 0.00 | 63 | 1021.1 |
| 20260506171701 | 20 | 94 | 6.4 | 16.1 | 0.00 | 0.00 | 0.00 | 63 | 1021.1 |
| 20260506171200 | 20 | 94 | 6.4 | 16.1 | 0.00 | 0.00 | 0.00 | 63 | 1021.1 |
| 20260506170926 | 20 | 113 | 3.2 | 16.1 | 0.00 | 0.00 | 0.00 | 64 | 1021.0 |
| 20260506170202 | 20 | 125 | 3.2 | 8.0 | 0.00 | 0.00 | 0.00 | 66 | 1021.1 |
| 20260506165702 | 20 | 90 | 4.8 | 9.7 | 0.00 | 0.00 | 0.00 | 66 | 1021.0 |
| 20260506165202 | 19 | 103 | 4.8 | 11.3 | 0.00 | 0.00 | 0.00 | 67 | 1021.0 |
| 20260506164701 | 19 | 102 | 6.4 | 11.3 | 0.00 | 0.00 | 0.00 | 67 | 1021.0 |
| 20260506164202 | 19 | 113 | 1.6 | 6.4 | 0.00 | 0.00 | 0.00 | 67 | 1021.0 |
| 20260506163702 | 18 | 110 | 3.2 | 6.4 | 0.00 | 0.00 | 0.00 | 69 | 1020.9 |
| 20260506163422 | 18 | 114 | 3.2 | 6.4 | 0.00 | 0.00 | 0.00 | 69 | 1020.9 |
| 20260506162700 | 18 | 109 | 1.6 | 6.4 | 0.00 | 0.00 | 0.00 | 70 | 1020.8 |
| 20260506162200 | 18 | 100 | 3.2 | 6.4 | 0.00 | 0.00 | 0.00 | 70 | 1020.8 |
| 20260506161700 | 18 | 117 | 3.2 | 4.8 | 0.00 | 0.00 | 0.00 | 71 | 1020.9 |
| 20260506161159 | 17 | 118 | 3.2 | 6.4 | 0.00 | 0.00 | 0.00 | 71 | 1020.9 |
| 20260506160921 | 17 | 127 | 3.2 | 6.4 | 0.00 | 0.00 | 0.00 | 71 | 1020.9 |
| 20260506160159 | 17 | 103 | 1.6 | 8.0 | 0.00 | 0.00 | 0.00 | 71 | 1020.8 |
| 20260506155659 | 17 | 102 | 4.8 | 9.7 | 0.00 | 0.00 | 0.00 | 72 | 1020.8 |
| 20260506155159 | 17 | 102 | 4.8 | 9.7 | 0.00 | 0.00 | 0.00 | 72 | 1020.9 |
| 20260506154658 | 17 | 100 | 4.8 | 9.7 | 0.00 | 0.00 | 0.00 | 73 | 1020.8 |
| 20260506154159 | 17 | 107 | 3.2 | 4.8 | 0.00 | 0.00 | 0.00 | 74 | 1020.7 |
| 20260506153700 | 17 | 109 | 1.6 | 4.8 | 0.00 | 0.00 | 0.00 | 76 | 1020.7 |
| 20260506153201 | 16 | 110 | 1.6 | 4.8 | 0.00 | 0.00 | 0.00 | 78 | 1020.6 |
| 20260506152700 | 16 | 100 | 0.0 | 3.2 | 0.00 | 0.00 | 0.00 | 79 | 1020.7 |
| 20260506152201 | 16 | 56 | 0.0 | 3.2 | 0.00 | 0.00 | 0.00 | 80 | 1020.6 |
| 20260506151659 | 15 | 306 | 0.0 | 0.0 | 0.00 | 0.00 | 0.00 | 81 | 1020.5 |
| 20260506151200 | 15 | 300 | 0.0 | 0.0 | 0.00 | 0.00 | 0.00 | 82 | 1020.6 |
| 20260506150659 | 15 | 298 | 0.0 | 0.0 | 0.00 | 0.00 | 0.00 | 83 | 1020.6 |
| 20260506150156 | 14 | 298 | 0.0 | 0.0 | 0.00 | 0.00 | 0.00 | 84 | 1020.6 |
| 20260506145700 | 14 | 298 | 0.0 | 0.0 | 0.00 | 0.00 | 0.00 | 84 | 1020.5 |
| 20260506145200 | 13 | 298 | 0.0 | 0.0 | 0.00 | 0.00 | 0.00 | 85 | 1020.5 |
| 20260506144658 | 13 | 298 | 0.0 | 0.0 | 0.00 | 0.00 | 0.00 | 85 | 1020.4 |
| 20260506144158 | 13 | 298 | 0.0 | 0.0 | 0.00 | 0.00 | 0.00 | 86 | 1020.3 |
| 20260506143657 | 13 | 298 | 0.0 | 0.0 | 0.00 | 0.00 | 0.00 | 86 | 1020.3 |
| 20260506143158 | 12 | 298 | 0.0 | 0.0 | 0.00 | 0.00 | 0.00 | 86 | 1020.3 |
| 20260506142657 | 12 | 298 | 0.0 | 0.0 | 0.00 | 0.00 | 0.00 | 86 | 1020.2 |
| 20260506142158 | 12 | 298 | 0.0 | 0.0 | 0.00 | 0.00 | 0.00 | 86 | 1020.2 |
| 20260506141657 | 12 | 298 | 0.0 | 1.6 | 0.00 | 0.00 | 0.00 | 86 | 1020.1 |
| 20260506141158 | 12 | 298 | 0.0 | 3.2 | 0.00 | 0.00 | 0.00 | 86 | 1020.0 |
| 20260506140656 | 12 | 298 | 0.0 | 3.2 | 0.00 | 0.00 | 0.00 | 85 | 1020.0 |
| 20260506140157 | 12 | 298 | 1.6 | 3.2 | 0.00 | 0.00 | 0.00 | 85 | 1019.9 |
| 20260506135657 | 12 | 298 | 0.0 | 3.2 | 0.00 | 0.00 | 0.00 | 85 | 1019.9 |
| 20260506135157 | 12 | 298 | 1.6 | 1.6 | 0.00 | 0.00 | 0.00 | 86 | 1019.8 |
| 20260506134656 | 11 | 298 | 0.0 | 0.0 | 0.00 | 0.00 | 0.00 | 86 | 1019.8 |
| 20260506134416 | 11 | 298 | 0.0 | 1.6 | 0.00 | 0.00 | 0.00 | 86 | 1019.8 |
| 20260506133656 | 11 | 298 | 0.0 | 1.6 | 0.00 | 0.00 | 0.00 | 86 | 1019.7 |
| 20260506133638 | 11 | 298 | 0.0 | 1.6 | 0.00 | 0.00 | 0.00 | 86 | 1019.6 |
| 20260506132656 | 11 | 298 | 0.0 | 3.2 | 0.00 | 0.00 | 0.00 | 87 | 1019.5 |
| 20260506132157 | 11 | 298 | 0.0 | 3.2 | 0.00 | 0.00 | 0.00 | 87 | 1019.6 |
| 20260506131655 | 11 | 298 | 1.6 | 3.2 | 0.00 | 0.00 | 0.00 | 87 | 1019.6 |
| 20260506131633 | 11 | 298 | 0.0 | 1.6 | 0.00 | 0.00 | 0.00 | 87 | 1019.5 |
| 20260506130917 | 11 | 298 | 0.0 | 3.2 | 0.00 | 0.00 | 0.00 | 87 | 1019.5 |
| 20260506130156 | 11 | 298 | 0.0 | 3.2 | 0.00 | 0.00 | 0.00 | 87 | 1019.5 |
| 20260506125654 | 11 | 298 | 0.0 | 0.0 | 0.00 | 0.00 | 0.00 | 87 | 1019.4 |
| 20260506125156 | 11 | 298 | 0.0 | 0.0 | 0.00 | 0.00 | 0.00 | 87 | 1019.3 |
| 20260506124655 | 11 | 298 | 0.0 | 0.0 | 0.00 | 0.00 | 0.00 | 87 | 1019.3 |
| 20260506124157 | 11 | 298 | 0.0 | 0.0 | 0.00 | 0.00 | 0.00 | 87 | 1019.3 |
| 20260506123656 | 11 | 298 | 0.0 | 1.6 | 0.00 | 0.00 | 0.00 | 87 | 1019.3 |
| 20260506123156 | 12 | 298 | 0.0 | 1.6 | 0.00 | 0.00 | 0.00 | 87 | 1019.3 |
| 20260506123142 | 12 | 298 | 0.0 | 1.6 | 0.00 | 0.00 | 0.00 | 86 | 1019.3 |
| 20260506122156 | 12 | 298 | 0.0 | 1.6 | 0.00 | 0.00 | 0.00 | 86 | 1019.3 |
| 20260506121654 | 12 | 298 | 0.0 | 1.6 | 0.00 | 0.00 | 0.00 | 86 | 1019.2 |
| 20260506121419 | 12 | 298 | 0.0 | 3.2 | 0.00 | 0.00 | 0.00 | 85 | 1019.3 |
| 20260506120654 | 12 | 298 | 0.0 | 3.2 | 0.00 | 0.00 | 0.00 | 84 | 1019.2 |
| 20260506120154 | 12 | 296 | 0.0 | 4.8 | 0.00 | 0.00 | 0.00 | 84 | 1019.2 |
| 20260506115655 | 12 | 296 | 0.0 | 4.8 | 0.00 | 0.00 | 0.00 | 84 | 1019.4 |
| 20260506115155 | 12 | 296 | 3.2 | 4.8 | 0.00 | 0.00 | 0.00 | 84 | 1019.4 |
| 20260506114654 | 12 | 296 | 3.2 | 3.2 | 0.00 | 0.00 | 0.00 | 84 | 1019.4 |
| 20260506114155 | 12 | 296 | 0.0 | 3.2 | 0.00 | 0.00 | 0.00 | 84 | 1019.3 |
| 20260506113654 | 12 | 296 | 0.0 | 6.4 | 0.00 | 0.00 | 0.00 | 84 | 1019.2 |
| 20260506113153 | 12 | 295 | 1.6 | 6.4 | 0.00 | 0.00 | 0.00 | 84 | 1019.3 |
| 20260506112653 | 12 | 295 | 4.8 | 8.0 | 0.00 | 0.00 | 0.00 | 84 | 1019.2 |
| 20260506112153 | 12 | 295 | 4.8 | 8.0 | 0.00 | 0.00 | 0.00 | 84 | 1019.3 |
| 20260506111653 | 12 | 302 | 6.4 | 8.0 | 0.00 | 0.00 | 0.00 | 83 | 1019.4 |
| 20260506111153 | 12 | 303 | 3.2 | 4.8 | 0.00 | 0.00 | 0.00 | 84 | 1019.3 |
| 20260506110652 | 12 | 305 | 3.2 | 4.8 | 0.00 | 0.00 | 0.00 | 83 | 1019.2 |
| 20260506110152 | 12 | 305 | 3.2 | 6.4 | 0.00 | 0.00 | 0.00 | 83 | 1019.2 |
| 20260506105652 | 12 | 305 | 3.2 | 8.0 | 0.00 | 0.00 | 0.00 | 83 | 1019.1 |
| 20260506105639 | 12 | 305 | 4.8 | 8.0 | 0.00 | 0.00 | 0.00 | 82 | 1019.2 |
| 20260506104652 | 12 | 305 | 6.4 | 8.0 | 0.00 | 0.00 | 0.00 | 82 | 1019.2 |
| 20260506104416 | 12 | 303 | 6.4 | 8.0 | 0.00 | 0.00 | 0.00 | 82 | 1019.2 |
| 20260506103652 | 12 | 32 | 3.2 | 3.2 | 0.00 | 0.00 | 0.00 | 83 | 1019.2 |
| 20260506103421 | 12 | 32 | 1.6 | 3.2 | 0.00 | 0.00 | 0.00 | 83 | 1019.1 |
| 20260506102654 | 12 | 32 | 0.0 | 4.8 | 0.00 | 0.00 | 0.00 | 82 | 1019.0 |
| 20260506102153 | 12 | 32 | 1.6 | 4.8 | 0.00 | 0.00 | 0.00 | 82 | 1019.0 |
| 20260506101654 | 12 | 32 | 3.2 | 4.8 | 0.00 | 0.00 | 0.00 | 82 | 1019.0 |
| 20260506101411 | 12 | 32 | 3.2 | 4.8 | 0.00 | 0.00 | 0.00 | 82 | 1018.9 |
| 20260506100920 | 12 | 32 | 3.2 | 4.8 | 0.00 | 0.00 | 0.00 | 82 | 1019.0 |
| 20260506100152 | 12 | 32 | 3.2 | 3.2 | 0.00 | 0.00 | 0.00 | 81 | 1018.9 |
| 20260506095653 | 12 | 32 | 1.6 | 3.2 | 0.00 | 0.00 | 0.00 | 81 | 1019.0 |
| 20260506095152 | 12 | 32 | 0.0 | 3.2 | 0.00 | 0.00 | 0.00 | 81 | 1019.0 |
| 20260506094653 | 12 | 34 | 1.6 | 4.8 | 0.00 | 0.00 | 0.00 | 81 | 1018.9 |
| 20260506094151 | 12 | 32 | 0.0 | 4.8 | 0.00 | 0.00 | 0.00 | 80 | 1018.9 |
| 20260506093652 | 12 | 32 | 3.2 | 4.8 | 0.00 | 0.00 | 0.00 | 80 | 1019.1 |
| 20260506093152 | 13 | 34 | 3.2 | 3.2 | 0.00 | 0.00 | 0.00 | 80 | 1019.1 |
| 20260506092652 | 13 | 34 | 0.0 | 3.2 | 0.00 | 0.00 | 0.00 | 79 | 1019.0 |
| 20260506092152 | 13 | 34 | 1.6 | 3.2 | 0.00 | 0.00 | 0.00 | 79 | 1019.1 |
| 20260506091653 | 13 | 34 | 0.0 | 1.6 | 0.00 | 0.00 | 0.00 | 79 | 1019.1 |
| 20260506091634 | 13 | 34 | 0.0 | 3.2 | 0.00 | 0.00 | 0.00 | 79 | 1019.1 |
| 20260506090908 | 13 | 34 | 1.6 | 4.8 | 0.00 | 0.00 | 0.00 | 78 | 1019.1 |
| 20260506090149 | 13 | 34 | 3.2 | 6.4 | 0.00 | 0.00 | 0.00 | 78 | 1019.2 |
| 20260506085651 | 13 | 34 | 1.6 | 8.0 | 0.00 | 0.00 | 0.00 | 78 | 1019.2 |
| 20260506085150 | 13 | 34 | 6.4 | 8.0 | 0.00 | 0.00 | 0.00 | 77 | 1019.2 |
| 20260506084650 | 13 | 39 | 0.0 | 4.8 | 0.00 | 0.00 | 0.00 | 77 | 1019.2 |
| 20260506084149 | 13 | 38 | 3.2 | 6.4 | 0.00 | 0.00 | 0.00 | 77 | 1019.2 |
| 20260506083650 | 13 | 39 | 4.8 | 6.4 | 0.00 | 0.00 | 0.00 | 77 | 1019.2 |
| 20260506083149 | 13 | 39 | 4.8 | 6.4 | 0.00 | 0.00 | 0.00 | 78 | 1019.2 |
| 20260506082650 | 13 | 37 | 6.4 | 6.4 | 0.00 | 0.00 | 0.00 | 78 | 1019.2 |
| 20260506082148 | 13 | 295 | 0.0 | 6.4 | 0.00 | 0.00 | 0.00 | 78 | 1019.2 |
| 20260506081650 | 13 | 295 | 3.2 | 6.4 | 0.00 | 0.00 | 0.00 | 79 | 1019.2 |
| 20260506081148 | 13 | 295 | 3.2 | 6.4 | 0.00 | 0.00 | 0.00 | 79 | 1019.2 |
| 20260506080916 | 13 | 295 | 3.2 | 11.3 | 0.00 | 0.00 | 0.00 | 80 | 1019.2 |
| 20260506080148 | 13 | 295 | 4.8 | 11.3 | 0.00 | 0.00 | 0.00 | 80 | 1019.2 |